Location: Stara Lesna
(49.1528°N, 20.2911°E)
Time: 17:11:32
(UTC+02:00)

Cosmos 2369 Rocket - Pass Details

Date: 21 September 2019
Orbit: 829 x 852 km, 71.0° (Epoch: 13 October)

Event Time Altitude Azimuth Distance (km) Brightness Sun altitude
Exits shadow 02:10:55 20° 91° (E) 1,848 4.2 -35.6°
Drops below altitude 10° 02:14:19 10° 54° (NE) 2,477 5.3 -35.3°
Sets 02:17:19 0° 39° (NE) 3,414 6.4 -35.1°
